GFSGL_700_temp_336.txt.gz
Temp
11 11 12 12 12 12 12 11 11 11 11 11 11 11 11 11 11 11 11 11 11 10 10 10 9 9 9 8 8 7 7 7 8 8 7 7 6 6 6 6 6 7 6
12 12 12 12 12 12 12 12 11 12 12 11 11 11 11 11 11 11 11 11 11 10 10 9 9 9 9 9 8 6 7 8 7 8 7 7 6 6 6 6 6 6 6
12 12 12 12 12 12 12 12 12 12 12 12 11 11 11 11 11 11 11 11 11 10 9 9 9 9 9 8 8 8 7 7 8 8 7 7 7 6 6 6 6 6 7
12 12 12 12 12 11 11 11 11 12 11 11 12 12 11 11 11 11 11 11 10 10 9 9 9 9 9 8 8 8 7 7 8 8 8 7 7 6 6 6 6 6 6
12 12 12 11 11 11 11 11 11 11 11 11 11 12 11 11 11 11 11 11 10 10 10 10 9 9 9 9 8 8 7 7 7 7 7 7 6 6 6 6 6 6 6
12 12 11 11 12 12 12 12 12 12 11 11 12 11 11 11 11 11 10 10 11 10 10 10 10 9 9 8 8 8 8 7 7 7 7 6 6 6 6 6 6 6 6
12 10 11 12 12 12 13 12 12 12 12 12 12 12 11 11 11 11 11 10 10 10 10 10 10 9 9 8 8 8 8 7 7 6 6 6 6 6 6 6 6 6 6
11 11 11 13 12 11 12 12 12 12 12 12 12 12 12 12 12 11 11 11 10 8 8 10 10 10 9 9 8 8 8 7 7 6 6 6 6 6 6 6 6 6 5
12 12 12 11 11 9 10 11 12 11 11 12 12 12 12 12 12 11 11 11 10 8 8 9 9 9 10 10 8 8 8 7 6 5 5 6 6 6 6 6 6 5 5
11 12 12 12 9 9 10 10 11 11 11 11 11 11 11 11 12 12 12 11 11 11 11 10 9 9 10 10 9 8 8 7 6 5 5 5 5 5 6 6 5 5 4
11 11 11 11 9 9 10 10 11 11 10 10 11 11 12 12 12 11 11 12 13 11 10 9 9 9 9 9 9 8 8 6 5 5 5 5 5 5 5 5 5 4 3
10 10 9 9 10 10 10 10 10 10 10 10 11 12 12 11 10 11 11 12 11 11 9 8 9 9 9 9 8 8 8 7 5 4 5 5 5 4 4 5 5 3 3
10 9 8 9 9 10 10 10 9 9 9 9 9 10 10 9 9 10 11 10 10 11 9 9 9 9 8 8 8 7 7 5 6 5 5 5 4 4 4 4 4 3 1
8 8 8 8 8 8 8 8 8 8 9 9 9 9 9 8 9 9 10 10 10 10 9 9 8 8 7 7 6 6 6 6 5 5 5 5 4 4 4 4 2 1 1
8 7 7 8 8 8 8 8 8 8 8 9 9 9 9 9 9 9 10 10 9 9 9 9 8 8 8 7 6 6 6 6 4 5 4 4 4 4 3 2 2 1 1
8 8 8 8 7 7 7 7 7 7 7 7 9 9 9 9 9 9 9 9 9 9 9 9 8 8 8 7 6 5 6 5 5 4 4 3 3 2 1 1 -0 1 -0
8 8 7 7 8 7 6 6 6 6 6 6 7 8 8 9 9 9 9 9 9 9 9 9 8 8 8 7 5 5 5 5 5 5 4 3 3 3 2 1 -0 0 -0
7 7 7 7 7 7 6 6 5 5 6 7 7 8 8 8 8 8 8 8 9 8 8 8 8 8 7 5 6 4 5 5 4 4 3 3 2 2 1 1 1 0 1
7 7 7 7 7 7 7 7 6 6 5 6 7 7 8 8 8 8 8 8 8 8 8 8 8 7 7 7 4 5 5 5 4 3 3 3 2 2 1 0 0 1 1
7 7 8 7 7 7 7 7 6 7 7 7 7 7 7 7 7 8 8 8 8 8 8 7 7 7 6 5 4 4 4 4 4 3 3 3 2 1 0 -0 2 2 1
7 7 8 8 7 7 7 6 7 7 6 6 7 7 7 7 6 7 8 8 8 8 7 7 7 7 6 5 4 5 3 3 4 3 3 2 1 0 1 2 2 2 2
7 7 8 7 7 7 8 6 7 6 7 7 7 7 7 6 7 8 8 8 7 7 7 7 6 5 4 4 4 4 4 4 3 3 2 1 1 1 2 2 2 2 2
8 8 8 8 8 7 7 7 6 6 6 7 7 7 7 7 7 7 8 7 7 7 6 6 5 3 4 4 4 4 3 3 2 2 2 2 2 2 2 2 2 2 1
8 8 8 7 7 6 7 7 6 6 7 7 7 7 7 7 7 7 7 7 7 7 6 6 5 4 4 4 4 3 3 2 2 2 2 2 2 2 2 2 2 1 1
7 8 7 7 7 6 6 7 7 7 6 6 7 7 7 6 7 7 7 6 7 7 6 5 5 4 3 3 3 2 2 2 1 1 2 2 2 2 2 2 2 1 1
7 7 8 7 7 6 6 6 7 7 7 7 7 7 7 7 6 6 6 6 6 7 6 5 4 4 3 3 2 2 2 1 1 2 2 2 2 2 2 2 1 1 2

GFSGL_700_temp_339.txt.gz
Temp
11 11 11 12 12 12 12 12 12 11 11 11 11 11 11 11 11 10 10 10 10 10 9 8 8 8 8 8 8 8 7 7 7 7 7 7 7 7 6 6 7 6 7
11 11 11 12 12 12 12 11 11 11 11 11 11 11 11 11 11 11 10 10 10 10 9 9 9 8 8 8 8 8 7 7 7 7 7 7 7 6 6 6 6 6 6
12 11 11 11 12 12 12 12 12 11 11 11 11 11 11 11 11 11 11 10 10 10 10 10 9 9 8 8 8 8 8 8 8 8 7 7 7 6 6 6 6 6 6
12 12 11 11 11 11 11 11 11 11 11 12 12 11 11 11 11 11 11 11 10 10 10 9 9 9 9 8 8 8 8 8 8 8 7 7 7 6 6 5 6 6 6
12 12 12 11 11 11 10 10 10 10 10 11 12 12 12 12 12 11 11 11 11 11 11 10 10 10 9 9 8 8 8 8 8 8 7 7 6 6 6 6 6 5 6
12 12 12 12 11 11 10 11 10 10 10 10 11 11 11 11 12 12 11 11 12 12 12 11 11 10 10 9 9 8 8 9 9 8 8 7 6 6 6 6 5 5 5
12 12 10 9 11 11 11 10 10 11 11 11 11 11 11 11 11 11 11 11 11 11 11 11 11 10 9 9 9 8 8 9 8 8 7 6 6 6 6 6 5 5 6
12 12 11 9 9 10 11 11 10 10 10 10 11 11 11 11 10 10 10 10 11 11 11 11 10 10 9 9 9 8 8 8 8 8 7 6 6 6 6 6 5 5 5
12 11 11 11 10 10 10 10 10 10 10 10 10 11 11 11 11 10 10 10 10 10 10 10 10 10 10 10 9 9 8 8 8 7 7 7 6 5 5 5 5 5 5
10 10 10 10 10 10 10 9 9 10 9 10 9 10 10 10 11 11 11 11 11 10 10 10 10 9 10 9 10 9 9 8 7 7 7 6 6 6 5 5 5 5 5
10 10 9 9 9 9 9 8 9 9 10 10 10 10 11 11 11 11 11 11 10 10 11 10 9 8 9 10 9 9 8 7 7 6 6 5 5 5 5 5 5 5 4
9 8 8 8 9 8 8 8 9 9 9 9 9 9 10 11 11 11 11 10 10 10 10 9 8 9 8 9 9 9 9 8 7 6 5 5 5 5 4 4 4 4 4
8 8 8 8 8 8 8 9 9 9 9 9 9 9 9 9 9 9 9 9 9 9 9 8 9 9 9 9 9 8 8 6 5 5 5 5 5 4 4 4 4 3 3
9 8 8 8 8 8 8 8 8 8 8 8 8 8 9 9 9 9 8 8 8 8 8 9 9 9 9 9 8 7 6 6 5 5 5 5 5 4 4 4 3 2 2
9 8 8 8 8 8 8 8 8 8 8 8 8 9 9 9 9 8 8 8 8 9 9 9 9 9 9 8 6 6 5 6 5 6 5 5 4 4 4 3 2 1 1
8 8 8 8 8 8 8 8 8 8 6 7 8 8 8 8 9 9 9 9 9 9 9 9 9 8 8 6 5 5 5 6 5 5 4 4 4 4 3 2 1 1 -0
8 7 7 7 8 7 8 8 7 7 6 6 7 7 7 8 8 8 8 9 9 9 8 9 8 8 8 8 6 5 5 5 5 4 4 4 5 4 2 1 1 1 -0
8 8 7 7 6 7 7 7 7 7 7 6 5 6 7 7 7 8 8 8 8 8 8 8 8 8 8 7 6 6 5 5 5 4 4 4 3 3 2 1 1 0 0
7 8 7 7 7 7 7 7 7 7 6 6 6 6 6 6 7 8 8 8 9 8 8 8 8 8 7 7 5 5 5 4 5 4 4 4 3 3 1 1 1 1 0
8 7 7 7 7 7 7 7 7 7 7 6 6 6 7 7 7 8 8 8 8 8 8 8 8 8 7 8 5 5 5 4 4 4 4 4 3 3 1 1 0 -0 0
8 8 7 7 7 7 7 7 7 7 6 7 6 7 7 7 7 7 7 8 8 8 8 7 7 7 6 5 4 4 4 4 4 3 3 2 3 2 1 0 0 1 1
8 7 7 7 7 7 8 8 7 7 7 7 7 7 7 7 7 7 7 8 8 8 7 7 7 6 5 5 4 3 4 4 4 3 3 3 2 1 1 1 2 1 1
7 7 7 7 7 7 8 8 7 8 7 7 7 7 7 7 7 7 7 7 7 8 7 7 6 6 4 4 4 4 3 3 3 2 2 2 2 2 2 2 2 1 1
7 7 7 7 8 7 8 7 8 7 7 7 7 7 7 7 7 7 7 7 7 7 7 7 6 6 4 3 3 4 4 3 3 3 2 2 2 2 2 2 2 1 1
7 7 7 7 7 7 7 7 7 7 7 7 7 6 6 6 6 7 7 7 7 7 7 6 6 5 3 4 3 3 3 3 3 3 3 2 3 3 2 2 1 2 2
7 7 7 6 6 6 6 7 6 6 6 6 6 6 6 6 6 6 6 7 7 7 6 6 6 5 4 4 3 3 2 3 3 3 2 2 2 2 2 1 2 1 1

GFSGL_700_temp_342.txt.gz
Temp
11 10 10 10 11 11 11 11 10 10 10 11 11 11 11 10 10 10 10 10 9 10 10 10 10 9 9 9 9 9 8 7 7 7 7 7 7 7 6 6 6 6 6
11 10 10 10 10 11 11 11 11 11 10 10 10 11 11 11 10 10 10 10 10 10 10 10 9 9 9 9 9 9 8 8 8 7 7 7 7 7 7 6 6 6 6
11 11 11 10 10 11 11 11 10 10 10 10 10 10 10 10 10 10 10 10 10 10 10 10 10 10 10 9 9 9 9 9 8 7 7 8 7 7 7 7 6 6 6
12 11 11 11 11 10 10 10 10 10 10 10 10 10 10 10 10 10 10 10 10 10 10 10 10 10 10 10 9 10 9 9 10 8 7 7 7 7 7 6 6 6 6
12 12 11 11 11 11 11 10 10 9 10 10 10 10 10 10 11 10 10 10 10 10 10 10 10 10 9 9 9 10 10 10 10 9 7 7 7 7 6 6 6 6 6
13 12 11 11 12 11 11 10 10 10 10 9 10 10 10 10 10 10 10 10 10 10 10 10 10 9 9 9 9 9 10 9 10 9 8 7 7 7 6 6 6 6 6
12 13 12 11 11 11 11 11 10 10 9 9 10 10 10 10 10 10 10 10 10 10 10 10 9 9 9 8 9 9 9 9 10 9 8 7 7 7 7 6 6 6 5
12 12 12 11 11 10 11 12 11 10 10 10 9 8 9 10 10 10 10 10 10 10 10 10 9 9 9 8 9 9 8 8 9 9 8 7 7 7 6 6 6 6 6
11 12 11 11 11 12 12 10 10 9 9 9 9 9 9 10 10 10 10 10 10 10 11 11 10 9 10 8 8 8 7 7 8 8 8 7 7 6 6 6 6 6 6
10 10 10 11 11 10 10 10 9 8 7 8 8 9 9 10 11 10 10 10 10 10 10 10 10 10 9 9 9 8 7 8 8 8 8 7 7 6 6 5 5 5 6
10 10 10 10 10 10 10 10 10 9 8 8 9 9 10 10 11 10 11 11 11 11 10 10 9 9 9 9 8 8 7 8 8 8 8 7 6 5 5 5 5 5 5
10 10 10 10 9 9 9 9 9 8 8 8 9 9 9 9 10 10 10 11 11 10 9 9 9 9 9 10 8 9 8 8 8 8 7 6 6 5 5 4 5 5 4
9 9 8 8 8 8 8 8 8 9 8 8 9 9 9 10 9 9 9 9 9 9 9 8 9 9 9 9 8 9 8 8 7 7 6 6 5 5 5 5 4 4 3
8 8 8 8 8 8 8 8 8 8 8 9 9 8 8 8 9 9 9 9 9 9 8 8 8 8 7 8 8 8 7 7 6 6 6 6 5 4 4 4 4 3 2
8 8 7 8 8 8 8 8 7 7 7 7 8 8 8 9 9 9 9 9 9 9 8 8 8 8 7 7 6 7 6 6 6 5 5 5 5 4 4 3 3 3 2
8 7 7 7 8 7 7 7 7 7 6 7 6 7 7 8 8 8 9 9 9 8 8 8 8 6 6 6 6 5 6 5 5 5 4 4 5 4 3 3 2 2 1
7 7 7 7 7 6 6 7 6 6 5 5 5 6 6 7 7 7 8 8 8 8 8 8 8 7 5 6 5 5 5 4 5 5 4 5 4 4 3 2 2 2 1
7 7 7 7 7 7 7 7 6 6 5 5 5 5 5 5 6 7 7 7 8 8 8 8 7 7 7 7 6 6 5 5 5 4 4 4 4 3 2 2 2 1 1
7 7 7 7 7 7 7 7 7 6 5 5 5 5 5 6 5 6 7 7 8 8 8 8 8 7 7 7 7 7 5 5 4 5 4 4 4 3 3 3 1 1 1
8 7 7 7 7 7 7 6 6 6 6 5 5 5 5 6 6 6 7 7 8 8 8 7 7 7 7 7 6 4 4 4 4 4 4 4 3 4 3 3 2 1 0
8 7 7 7 7 7 7 7 6 6 6 6 5 6 6 6 6 6 7 7 7 7 7 7 7 7 6 5 5 4 4 4 3 3 3 3 3 2 2 1 1 0 1
7 7 7 7 7 8 7 8 7 6 6 7 7 6 6 6 6 6 7 7 7 7 7 7 7 7 6 6 5 5 4 3 3 3 3 3 2 2 1 1 1 2 2
7 7 7 7 7 7 7 7 7 6 6 7 6 6 6 6 6 7 7 7 7 7 7 7 7 6 5 4 4 4 4 4 3 3 3 3 3 2 1 2 2 2 2
8 8 7 7 7 7 7 7 7 7 6 6 6 6 6 6 6 6 6 6 7 7 7 6 6 5 5 4 3 3 3 3 3 3 3 2 1 1 2 2 2 2 2
8 8 8 7 7 7 7 7 7 7 7 6 6 6 6 6 6 6 6 6 6 6 6 6 6 5 5 4 3 3 3 3 3 3 3 2 2 2 2 2 2 2 2
8 8 8 7 7 7 7 7 7 7 6 6 6 6 6 6 6 6 6 6 6 6 6 6 6 6 5 4 3 3 3 2 3 3 3 3 2 2 2 2 2 2 2

GFSGL_700_temp_345.txt.gz
Temp
11 10 10 10 10 11 11 11 11 10 10 10 10 10 10 10 10 10 10 10 10 10 10 10 10 10 10 9 9 9 9 9 8 8 8 8 8 8 8 7 6 6 6
11 11 10 10 10 10 10 11 11 10 10 10 10 10 10 10 10 10 10 10 10 10 10 10 10 10 10 10 9 10 9 9 8 8 8 8 8 8 8 7 6 6 6
12 11 11 11 10 10 10 10 10 10 10 10 10 10 10 10 10 10 10 10 9 9 9 10 10 10 10 10 9 10 9 9 9 9 9 9 8 8 7 7 6 5 6
12 12 11 11 10 10 10 10 10 10 10 10 10 10 10 10 10 10 10 10 9 9 10 10 10 11 10 9 9 9 9 9 8 9 9 9 8 8 8 7 7 6 6
12 12 11 11 11 11 11 11 10 10 10 10 10 10 10 10 10 10 10 10 10 10 10 10 11 10 10 9 9 8 9 9 8 8 8 8 8 8 8 7 7 6 6
13 13 12 12 11 11 11 10 10 10 11 10 10 10 10 10 10 10 10 10 10 10 10 10 10 10 10 9 9 9 9 9 9 8 7 8 8 8 8 8 7 7 6
13 13 12 12 11 11 11 11 11 10 10 11 10 10 10 10 10 10 10 10 10 10 10 10 10 10 10 10 10 9 9 9 8 8 7 7 7 8 8 8 7 7 6
12 12 12 12 12 11 11 11 11 11 11 11 10 11 10 10 11 11 10 10 10 10 10 10 10 10 10 9 9 9 8 8 7 7 7 7 6 7 7 7 7 7 6
11 11 11 11 12 11 11 11 11 11 11 10 10 11 11 11 11 10 9 9 10 10 10 10 10 10 10 9 9 9 8 8 7 7 7 6 6 6 7 7 6 6 6
11 11 11 11 11 11 10 10 10 10 10 11 11 11 11 10 10 10 10 9 10 9 9 10 10 10 9 9 9 9 9 8 7 7 6 6 6 6 6 6 6 5 5
10 10 10 10 10 10 10 11 11 11 11 10 10 10 9 9 9 10 9 9 9 10 10 10 10 10 9 9 9 9 9 8 8 8 7 6 6 6 6 6 5 5 5
9 9 9 9 9 9 9 9 9 9 10 9 9 9 9 9 9 9 9 9 9 9 10 10 10 9 9 9 9 9 8 9 9 8 7 6 6 5 5 5 5 5 4
9 9 9 9 9 9 9 9 9 8 8 8 8 8 8 8 9 9 8 9 9 9 9 9 8 8 8 9 8 9 9 8 8 7 6 5 5 5 5 5 5 4 4
9 9 9 8 8 8 8 8 8 8 8 7 7 7 8 8 8 8 8 8 8 8 8 8 8 8 7 7 7 8 8 7 7 7 6 5 5 5 5 5 4 4 3
8 8 8 8 8 8 7 7 7 7 6 6 6 7 7 8 8 8 8 8 8 9 8 8 8 8 8 7 7 7 7 7 7 6 6 5 5 5 4 4 3 3 2
8 8 8 7 7 7 6 7 7 6 5 5 5 5 6 7 7 7 8 8 8 8 8 8 8 8 7 6 6 6 7 6 6 5 5 5 5 5 4 3 3 2 2
8 8 8 7 7 7 7 7 6 6 6 6 5 5 5 6 6 7 7 7 7 7 7 8 8 8 8 7 6 5 6 5 5 5 5 5 4 4 4 4 2 2 1
8 8 7 7 7 7 7 7 6 6 6 6 5 5 5 5 5 6 7 8 8 7 8 8 8 8 7 6 7 6 5 5 5 5 5 4 4 4 4 3 2 2 2
9 8 7 7 7 7 7 7 6 6 6 6 5 5 5 4 4 6 6 7 7 7 8 8 8 7 7 7 7 6 5 5 5 4 4 4 4 4 4 2 3 2 2
9 8 8 8 7 7 7 7 7 6 6 6 5 5 5 4 5 6 6 7 8 8 8 8 8 8 7 7 7 6 6 5 5 4 4 4 4 4 3 3 3 2 1
8 8 8 8 8 8 7 7 7 7 6 6 6 6 6 6 6 6 6 7 7 8 8 8 8 7 7 6 6 6 4 4 4 4 4 4 3 3 3 2 2 1 1
8 8 8 8 8 8 7 7 7 7 6 6 6 6 6 6 6 6 6 7 7 7 7 8 7 7 7 7 6 6 4 4 4 4 3 3 3 3 2 2 1 1 1
8 8 8 8 8 7 7 7 7 7 6 6 6 6 6 6 6 6 6 7 7 7 7 7 7 7 7 6 6 5 4 4 4 4 3 3 3 2 2 1 1 1 2
8 8 8 8 8 7 7 7 7 7 6 6 6 6 6 6 6 6 6 6 7 7 7 7 7 7 6 6 5 4 4 4 3 3 3 3 2 2 1 1 2 2 2
9 9 8 8 7 7 7 7 7 7 6 6 6 6 6 5 5 6 6 6 6 6 6 7 7 6 6 5 4 3 3 3 3 3 3 2 2 2 2 2 2 2 2
9 9 8 8 7 7 7 7 7 7 7 6 6 6 6 6 6 6 6 6 6 6 6 6 6 6 6 6 5 4 3 3 3 2 3 3 3 3 2 2 2 2 2